sat.trackr.live / text

‹ back to catalog

STARLINK-32098

NORAD 59704 · 2024-086Y

PAYLOAD ACTIVE UNKNOWN

§ Identity

Operator
Country
US
Launch date
2024-05-08
Launch site
AFETR
Launch vehicle
Mass (kg)
RCS (m²)

Purposes: comms

External: N2YO · Heavens-Above · Gunter

§ Orbital elements

Epoch: 2026-05-24T22:56:03.530688Z

Period
94.27 min
Inclination
43.0103°
Eccentricity
0.0002859
Mean motion
15.27575984 rev/d
Perigee alt
481.1 km
Apogee alt
485.0 km
Semi-major
6,861.2 km
B*
5.8655e-5
RAAN
349.3890°
Arg perigee
262.3414°
Mean anomaly
97.7113°
Rev number
11,577

§ Raw data

STARLINK-320981 59704U 24086Y   26144.95559642  .00001351  00000+0  58655-4 0  99992 59704  43.0103 349.3890 0002859 262.3414  97.7113 15.27575984115772

JSON: /api/v1/satellites/59704 · /tle

For live sub-satellite position, see the globe view (requires WebGL).

§ Visibility from observer

Set your observer location to see the next 7 days of passes ≥ 10°. The values pass through the URL so the page stays shareable.

No JS? Fill the form by hand. The geolocation button needs JavaScript.